Regional Weather Roundup
Issued by NWS State College, PA

Home | Current Version | Previous Version | Text Only | Print | Product List | Glossary On
Versions: 1 2 3 4 5 6 7 8 9 10 11 12 13 14 15 16 17 18 19 20 21 22 23 24 25 26 27 28 29 30 31 32 33 34 35 36 37 38 39 40 41 42 43 44 45 46 47 48 49 50
000
ASUS41 KCTP 172203
RWRCTP

REGIONAL WEATHER ROUNDUP
NATIONAL WEATHER SERVICE STATE COLLEGE PA
500 PM EST WED DEC 17 2014

Note: "fair" indicates few or no clouds below 12,000 feet with no
significant weather and/or obstructions to visibility.

* = STATION THAT DOES NOT REPORT PRECIPITATION /E.G. RAIN...SNOW...ETC/
    THUNDER OR FOG.

PAZ002>004-007>009-013>016-020>023-029>032-172300-
WESTERN PENNSYLVANIA

CITY           SKY/WX    TMP DP  RH WIND       PRES   REMARKS
ERIE           CLOUDY    33  24  69 W16G26    30.03R
MEADVILLE      CLOUDY    30  22  72 W16       30.02S
FRANKLIN*      CLOUDY    28  21  74 W10G18    30.03S
NEW CASTLE       N/A     30  24  78 W7        30.08S
BEAVER COUNTY  CLOUDY    30  25  80 W5        30.07S
BUTLER*        CLOUDY    30  23  74 W8G16     30.07S
PITTSBURGH INT CLOUDY    32  24  72 W10       30.07S
PITTSBURGH     CLOUDY    32  22  66 W10       30.06S
INDIANA*       CLOUDY    32  25  74 NW8G15    30.07S
LATROBE        CLOUDY   N/A N/A N/A W17G29    30.07S
WASHINGTON CO* CLOUDY    30  21  69 SW10      30.10S
$$

PAZ004>006-010>012-017>019-024>028-033>037-041-042-045-046-049>053-172300-
CENTRAL PENNSYLVANIA

CITY           SKY/WX    TMP DP  RH WIND       PRES   REMARKS
BRADFORD       CLOUDY    28  23  81 W17G24    29.93R
DUBOIS         CLOUDY    30  25  81 W14       29.98R
CLEARFIELD     CLOUDY    31  24  75 W9G18     29.99R
JOHNSTOWN      CLOUDY    29  22  75 W21G28    29.97R
ALTOONA        CLOUDY    34  25  69 W16G25    30.00R
STATE COLLEGE  CLOUDY    34  25  69 W17       30.00R
WILLIAMSPORT   CLOUDY    38  31  76 W9        29.95R
SELINSGROVE    CLOUDY    41  28  60 W7G22     29.98R
FT INDIANTOWN  CLOUDY    41  26  54 W13       29.97R
CAPITAL CITY   MOCLDY    42  27  55 W15       29.99R
HARRISBURG     MOCLDY    42  27  55 W12       29.98R
YORK           CLOUDY    42  27  55 W13G22    29.99R
$$

PAZ038>040-043-044-047-048-054-055-060>062-067>071-172300-
EASTERN PENNSYLVANIA

CITY           SKY/WX    TMP DP  RH WIND       PRES   REMARKS
SCRANTON       CLOUDY    41  34  76 SW10G18   29.89R
MOUNT POCONO   LGT RAIN  36  31  82 W16       29.82R
ALLENTOWN      CLOUDY    44  30  57 W12       29.91R
QUAKERTOWN*    CLOUDY    43  32  65 W8        29.92R
READING        MOCLDY    43  28  55 W13G26    29.94R
LANCASTER      PTCLDY    40  28  62 W13       29.96R
COATESVILLE    CLOUDY    43  32  65 W22G28    29.94R
POTTSTOWN      CLOUDY    44  29  55 W17G30    29.94R
BLUE BELL      CLOUDY    46  32  57 W9G26     29.92R
DOYLESTOWN     CLEAR     42  30  62 W10G20    29.90R
WILLOW GROVE   NOT AVBL
NORTH PHILA    CLOUDY    48  30  49 W18G24    29.93R
PHILADELPHIA   MOCLDY    48  30  49 W15       29.94R
$$


USA.gov is the U.S. government's official web portal to all federal, state and local government web resources and services.